Location: Unspecified
(0.0000°N, 0.0000°E)
Time: 12:20:19
(UTC+00:00)

Vanguard 1 - Pass Details

Date: 13 December 2018
Orbit: 652 x 3832 km, 34.2° (Epoch: 25 March)

Event Time Altitude Azimuth Distance (km) Brightness Sun altitude
Exits shadow 04:00:33 15° 27° (NNE) 1,760 11.4 -25.9°
Drops below altitude 10° 04:01:18 10° 32° (NNE) 2,039 11.8 -25.7°
Sets 04:03:39 0° 40° (NE) 2,971 12.7 -25.2°
